| time (UTC) | temp C | wind direction | speed KPH | gust KPH | rain 1hr cm | rain 24hr cm | rain mn cm | humidity % | barometer mb |
| 20260509064635 | 7 | 62 | 0.0 | 0.0 | 0.00 | 0.00 | 0.00 | 92 | 1007.6 |
| 20260509063644 | 7 | 62 | 0.0 | 3.2 | 0.00 | 0.00 | 0.00 | 92 | 1008.0 |
| 20260509062611 | 7 | 62 | 0.0 | 3.2 | 0.00 | 0.00 | 0.00 | 92 | 1008.2 |
| 20260509061604 | 7 | 62 | 0.0 | 1.6 | 0.00 | 0.00 | 0.00 | 92 | 1008.2 |
| 20260509060619 | 7 | 62 | 1.6 | 3.2 | 0.00 | 0.00 | 0.00 | 92 | 1008.5 |
| 20260509055607 | 7 | 62 | 1.6 | 3.2 | 0.00 | 0.00 | 0.00 | 91 | 1008.5 |
| 20260509054601 | 8 | 62 | 1.6 | 3.2 | 0.00 | 0.00 | 0.00 | 90 | 1008.5 |
| 20260509052624 | 8 | 62 | 1.6 | 4.8 | 0.00 | 0.00 | 0.00 | 89 | 1008.8 |
| 20260509051636 | 8 | 74 | 4.8 | 4.8 | 0.00 | 0.00 | 0.00 | 88 | 1008.8 |
| 20260509050609 | 8 | 179 | 0.0 | 0.0 | 0.00 | 0.00 | 0.00 | 86 | 1009.2 |
| 20260509045615 | 8 | 179 | 0.0 | 1.6 | 0.00 | 0.00 | 0.00 | 85 | 1009.1 |
| 20260509044617 | 8 | 179 | 0.0 | 0.0 | 0.00 | 0.00 | 0.00 | 84 | 1009.1 |
| 20260509043612 | 8 | 179 | 0.0 | 0.0 | 0.00 | 0.00 | 0.00 | 83 | 1009.0 |
| 20260509042639 | 9 | 179 | 0.0 | 1.6 | 0.00 | 0.00 | 0.00 | 81 | 1008.9 |
| 20260509040612 | 9 | 311 | 0.0 | 9.7 | 0.00 | 0.00 | 0.00 | 80 | 1009.1 |
| 20260509035602 | 9 | 307 | 8.0 | 11.3 | 0.00 | 0.00 | 0.00 | 80 | 1009.2 |
| 20260509034601 | 9 | 303 | 8.0 | 12.9 | 0.00 | 0.00 | 0.00 | 81 | 1009.2 |
| 20260509033633 | 8 | 282 | 3.2 | 8.0 | 0.00 | 0.00 | 0.00 | 84 | 1009.3 |
| 20260509032634 | 8 | 312 | 0.0 | 6.4 | 0.00 | 0.00 | 0.00 | 85 | 1009.1 |
| 20260509031626 | 8 | 333 | 0.0 | 3.2 | 0.00 | 0.00 | 0.00 | 85 | 1009.1 |
| 20260509030622 | 8 | 349 | 1.6 | 3.2 | 0.00 | 0.00 | 0.00 | 85 | 1009.0 |
| 20260509025615 | 8 | 349 | 0.0 | 3.2 | 0.00 | 0.00 | 0.00 | 84 | 1009.1 |
| 20260509024631 | 8 | 179 | 0.0 | 3.2 | 0.00 | 0.00 | 0.00 | 83 | 1009.1 |
| 20260509023612 | 8 | 198 | 1.6 | 4.8 | 0.00 | 0.00 | 0.00 | 82 | 1009.1 |
| 20260509022633 | 8 | 200 | 1.6 | 4.8 | 0.00 | 0.00 | 0.00 | 82 | 1009.2 |
| 20260509021621 | 8 | 311 | 1.6 | 8.0 | 0.00 | 0.00 | 0.00 | 83 | 1009.2 |
| 20260509015644 | 9 | 282 | 1.6 | 1.6 | 0.00 | 0.03 | 0.00 | 81 | 1008.9 |
| 20260509014633 | 10 | 282 | 0.0 | 3.2 | 0.00 | 0.03 | 0.00 | 80 | 1008.9 |
| 20260509013631 | 10 | 242 | 1.6 | 4.8 | 0.00 | 0.03 | 0.00 | 78 | 1008.9 |
| 20260509012635 | 10 | 250 | 1.6 | 9.7 | 0.00 | 0.03 | 0.00 | 76 | 1009.0 |
| 20260509011635 | 10 | 252 | 1.6 | 11.3 | 0.00 | 0.03 | 0.00 | 74 | 1009.0 |
| 20260509010644 | 10 | 263 | 1.6 | 11.3 | 0.00 | 0.03 | 0.00 | 73 | 1008.3 |
| 20260509004601 | 10 | 318 | 1.6 | 8.0 | 0.00 | 0.03 | 0.00 | 72 | 1008.0 |
| 20260509003633 | 11 | 250 | 1.6 | 9.7 | 0.00 | 0.03 | 0.00 | 70 | 1008.2 |
| 20260509001636 | 11 | 247 | 4.8 | 16.1 | 0.00 | 0.03 | 0.00 | 68 | 1011.8 |
| 20260509000633 | 11 | 258 | 4.8 | 11.3 | 0.00 | 0.03 | 0.00 | 68 | 1011.6 |
| 20260508235633 | 11 | 242 | 8.0 | 20.9 | 0.00 | 0.03 | 0.00 | 68 | 1011.5 |
| 20260508234619 | 11 | 236 | 3.2 | 29.0 | 0.00 | 0.03 | 0.00 | 69 | 1011.5 |
| 20260508231604 | 12 | 242 | 4.8 | 20.9 | 0.00 | 0.03 | 0.00 | 68 | 1011.5 |
| 20260508230643 | 12 | 238 | 6.4 | 20.9 | 0.00 | 0.03 | 0.00 | 69 | 1011.2 |
| 20260508225612 | 12 | 268 | 3.2 | 20.9 | 0.00 | 0.03 | 0.00 | 68 | 1011.1 |
| 20260508223625 | 12 | 245 | 8.0 | 27.4 | 0.00 | 0.03 | 0.00 | 68 | 1011.1 |
| 20260508222614 | 12 | 250 | 8.0 | 25.7 | 0.00 | 0.03 | 0.00 | 69 | 1011.1 |
| 20260508221609 | 12 | 251 | 4.8 | 22.5 | 0.00 | 0.03 | 0.00 | 70 | 1011.1 |
| 20260508220610 | 12 | 255 | 9.7 | 27.4 | 0.00 | 0.03 | 0.00 | 69 | 1011.3 |
| 20260508215638 | 11 | 235 | 9.7 | 22.5 | 0.00 | 0.03 | 0.00 | 73 | 1011.3 |
| 20260508214628 | 11 | 263 | 3.2 | 17.7 | 0.00 | 0.03 | 0.00 | 77 | 1011.3 |
| 20260508213636 | 11 | 263 | 4.8 | 9.7 | 0.00 | 0.03 | 0.00 | 78 | 1011.3 |
| 20260508212621 | 10 | 279 | 3.2 | 12.9 | 0.00 | 0.03 | 0.00 | 79 | 1011.1 |
| 20260508211607 | 10 | 287 | 3.2 | 19.3 | 0.00 | 0.03 | 0.00 | 80 | 1011.1 |
| 20260508210609 | 10 | 271 | 4.8 | 16.1 | 0.00 | 0.03 | 0.00 | 81 | 1011.2 |
| 20260508205609 | 10 | 284 | 4.8 | 9.7 | 0.00 | 0.03 | 0.00 | 81 | 1011.6 |
| 20260508204636 | 10 | 269 | 1.6 | 4.8 | 0.00 | 0.03 | 0.00 | 81 | 1011.6 |
| 20260508203639 | 10 | 269 | 3.2 | 22.5 | 0.00 | 0.03 | 0.00 | 78 | 1011.9 |
| 20260508202646 | 11 | 235 | 9.7 | 32.2 | 0.00 | 0.03 | 0.00 | 72 | 1011.6 |
| 20260508201625 | 12 | 253 | 16.1 | 40.2 | 0.00 | 0.03 | 0.00 | 60 | 1011.6 |
| 20260508200613 | 13 | 248 | 16.1 | 35.4 | 0.00 | 0.03 | 0.00 | 52 | 1011.1 |
| 20260508195633 | 13 | 257 | 6.4 | 22.5 | 0.00 | 0.03 | 0.00 | 52 | 1011.0 |
| 20260508194631 | 13 | 231 | 12.9 | 29.0 | 0.00 | 0.03 | 0.00 | 52 | 1011.0 |
| 20260508193605 | 13 | 259 | 8.0 | 22.5 | 0.00 | 0.03 | 0.00 | 52 | 1011.1 |
| 20260508192621 | 12 | 184 | 1.6 | 8.0 | 0.00 | 0.03 | 0.00 | 59 | 1011.2 |
| 20260508190628 | 12 | 306 | 4.8 | 11.3 | 0.00 | 0.03 | 0.00 | 59 | 1011.1 |
| 20260508185604 | 12 | 351 | 8.0 | 14.5 | 0.00 | 0.03 | 0.00 | 60 | 1011.1 |
| 20260508184644 | 13 | 11 | 8.0 | 17.7 | 0.00 | 0.03 | 0.00 | 59 | 1011.1 |
| 20260508183644 | 12 | 348 | 8.0 | 17.7 | 0.00 | 0.03 | 0.00 | 58 | 1011.6 |
| 20260508182610 | 13 | 300 | 12.9 | 20.9 | 0.00 | 0.03 | 0.00 | 53 | 1011.1 |
| 20260508180611 | 13 | 245 | 11.3 | 20.9 | 0.00 | 0.03 | 0.00 | 52 | 1011.6 |
| 20260508175626 | 13 | 298 | 8.0 | 17.7 | 0.00 | 0.03 | 0.00 | 53 | 1012.0 |
| 20260508174646 | 13 | 246 | 6.4 | 29.0 | 0.00 | 0.03 | 0.00 | 55 | 1012.0 |
| 20260508173624 | 13 | 314 | 9.7 | 16.1 | 0.00 | 0.03 | 0.00 | 56 | 1012.0 |
| 20260508172618 | 12 | 351 | 4.8 | 14.5 | 0.00 | 0.03 | 0.00 | 62 | 1012.3 |
| 20260508171642 | 10 | 268 | 4.8 | 20.9 | 0.00 | 0.03 | 0.00 | 65 | 1012.3 |
| 20260508165613 | 12 | 241 | 11.3 | 22.5 | 0.00 | 0.03 | 0.00 | 52 | 1012.2 |
| 20260508164617 | 12 | 244 | 12.9 | 30.6 | 0.00 | 0.03 | 0.00 | 50 | 1012.2 |
| 20260508163623 | 12 | 245 | 9.7 | 20.9 | 0.00 | 0.03 | 0.00 | 53 | 1012.2 |
| 20260508162614 | 12 | 297 | 6.4 | 19.3 | 0.00 | 0.03 | 0.00 | 52 | 1012.3 |
| 20260508161632 | 12 | 280 | 4.8 | 24.1 | 0.00 | 0.03 | 0.00 | 51 | 1012.3 |
| 20260508155619 | 12 | 256 | 12.9 | 32.2 | 0.00 | 0.03 | 0.00 | 52 | 1012.5 |
| 20260508153636 | 12 | 293 | 3.2 | 20.9 | 0.00 | 0.03 | 0.00 | 56 | 1012.4 |
| 20260508152626 | 12 | 295 | 22.5 | 40.2 | 0.00 | 0.03 | 0.00 | 51 | 1012.4 |
| 20260508150618 | 12 | 247 | 12.9 | 32.2 | 0.00 | 0.03 | 0.00 | 55 | 1012.3 |
| 20260508145627 | 12 | 264 | 6.4 | 25.7 | 0.00 | 0.03 | 0.00 | 54 | 1012.0 |
| 20260508144623 | 12 | 229 | 16.1 | 30.6 | 0.00 | 0.03 | 0.00 | 55 | 1012.0 |
| 20260508143645 | 11 | 241 | 14.5 | 30.6 | 0.00 | 0.03 | 0.00 | 54 | 1012.3 |
| 20260508142600 | 11 | 239 | 14.5 | 33.8 | 0.00 | 0.03 | 0.00 | 53 | 1012.6 |
| 20260508141609 | 11 | 255 | 11.3 | 29.0 | 0.00 | 0.03 | 0.00 | 55 | 1012.6 |
| 20260508135636 | 10 | 202 | 4.8 | 17.7 | 0.00 | 0.03 | 0.00 | 61 | 1012.6 |
| 20260508134622 | 10 | 206 | 8.0 | 19.3 | 0.00 | 0.03 | 0.00 | 63 | 1012.6 |
| 20260508133617 | 9 | 192 | 8.0 | 19.3 | 0.00 | 0.03 | 0.00 | 63 | 1012.7 |
| 20260508131621 | 7 | 244 | 8.0 | 12.9 | 0.00 | 0.03 | 0.00 | 69 | 1012.8 |
| 20260508130607 | 7 | 243 | 1.6 | 11.3 | 0.00 | 0.03 | 0.00 | 74 | 1013.1 |
| 20260508125603 | 6 | 249 | 3.2 | 11.3 | 0.00 | 0.03 | 0.00 | 74 | 1012.9 |
| 20260508124608 | 6 | 251 | 1.6 | 9.7 | 0.00 | 0.03 | 0.00 | 76 | 1012.9 |
| 20260508123611 | 5 | 244 | 4.8 | 9.7 | 0.00 | 0.03 | 0.00 | 77 | 1013.0 |
| 20260508122604 | 5 | 214 | 3.2 | 8.0 | 0.00 | 0.03 | 0.00 | 81 | 1013.0 |
| 20260508121608 | 4 | 224 | 1.6 | 3.2 | 0.00 | 0.03 | 0.00 | 84 | 1013.0 |
| 20260508115645 | 3 | 224 | 0.0 | 0.0 | 0.00 | 0.03 | 0.00 | 86 | 1012.9 |
| 20260508114632 | 3 | 224 | 0.0 | 0.0 | 0.00 | 0.03 | 0.00 | 88 | 1012.9 |
| 20260508112603 | 2 | 224 | 0.0 | 0.0 | 0.00 | 0.03 | 0.00 | 89 | 1013.2 |
| 20260508111622 | 2 | 224 | 0.0 | 0.0 | 0.00 | 0.03 | 0.00 | 90 | 1013.2 |
| 20260508110621 | 1 | 224 | 0.0 | 1.6 | 0.00 | 0.03 | 0.00 | 91 | 1013.2 |
| 20260508105611 | 1 | 224 | 0.0 | 1.6 | 0.00 | 0.03 | 0.00 | 91 | 1012.9 |
| 20260508104606 | 1 | 224 | 0.0 | 1.6 | 0.00 | 0.03 | 0.00 | 91 | 1012.9 |
| 20260508103637 | 1 | 224 | 0.0 | 3.2 | 0.00 | 0.03 | 0.00 | 91 | 1012.8 |
| 20260508102611 | 1 | 224 | 0.0 | 3.2 | 0.00 | 0.03 | 0.00 | 92 | 1013.2 |
| 20260508100626 | 0 | 215 | 1.6 | 4.8 | 0.00 | 0.03 | 0.00 | 91 | 1013.3 |
| 20260508095638 | 0 | 215 | 0.0 | 0.0 | 0.00 | 0.03 | 0.00 | 90 | 1013.1 |
| 20260508093622 | 0 | 215 | 0.0 | 0.0 | 0.00 | 0.03 | 0.00 | 89 | 1013.1 |
| 20260508091616 | 1 | 215 | 0.0 | 0.0 | 0.00 | 0.03 | 0.00 | 88 | 1013.0 |
| 20260508090622 | 1 | 215 | 0.0 | 0.0 | 0.00 | 0.03 | 0.00 | 88 | 1013.0 |
| 20260508085615 | 1 | 215 | 0.0 | 0.0 | 0.00 | 0.03 | 0.00 | 88 | 1012.8 |
| 20260508084615 | 1 | 215 | 0.0 | 0.0 | 0.00 | 0.03 | 0.00 | 87 | 1012.8 |
| 20260508083628 | 1 | 215 | 0.0 | 0.0 | 0.00 | 0.03 | 0.00 | 87 | 1012.8 |
| 20260508082608 | 1 | 215 | 0.0 | 0.0 | 0.00 | 0.03 | 0.00 | 86 | 1012.8 |
| 20260508081611 | 1 | 215 | 0.0 | 0.0 | 0.00 | 0.03 | 0.00 | 85 | 1012.8 |
| 20260508080631 | 2 | 215 | 0.0 | 0.0 | 0.00 | 0.03 | 0.00 | 85 | 1012.8 |
| 20260508075605 | 2 | 215 | 0.0 | 0.0 | 0.00 | 0.03 | 0.00 | 85 | 1012.8 |
| 20260508073646 | 2 | 215 | 0.0 | 1.6 | 0.00 | 0.03 | 0.00 | 85 | 1012.8 |
| 20260508072646 | 2 | 215 | 0.0 | 1.6 | 0.00 | 0.03 | 0.00 | 84 | 1012.8 |
| 20260508071640 | 2 | 215 | 0.0 | 0.0 | 0.00 | 0.03 | 0.00 | 83 | 1012.8 |
| 20260508070641 | 2 | 215 | 0.0 | 0.0 | 0.00 | 0.03 | 0.00 | 82 | 1013.1 |
| 20260508065634 | 3 | 215 | 0.0 | 1.6 | 0.00 | 0.03 | 0.00 | 80 | 1013.2 |